Home > Weather > Bergkamen > Past weeks

Flag for Germany Weather for the Past 2 Weeks in Bergkamen, North Rhine-Westphalia, Germany

Now
57 °F

Sunny.


Feels Like: 55 °F
Forecast: 50 / 72 °F
Wind: 8 mph from East

Location: Dortmund / Wickede

Current Time: May 5, 2016 at 11:02:19 PM

Latest Report: May 5, 2016 at 9:50 PM


Visibility: 10 mi

Pressure: 30.12 "Hg

Humidity: 55%

Dew Point: 41 °F

Location of BergkamenLocation

Historic Weather in Bergkamen — Graph

°F

Bergkamen Temperature Yesterday

Maximum temperature yesterday: 55 °F (at 3:20 PM)
Minimum temperature yesterday: 36 °F (at 6:20 AM)
Average temperature yesterday: 50 °F

High & Low Weather Summary for the Past Weeks

 TemperatureHumidityPressure
High66 °F (May 2, 4:50 PM)93% (Apr 24, 4:50 PM)30.42 "Hg (Apr 24, 4:50 PM)
Low34 °F (Apr 21, 6:20 AM)31% (May 4, 5:50 PM)29.45 "Hg (Apr 26, 1:50 PM)
Average47 °F64%30.03 "Hg
* Reported Apr 20 9:20 PM — May 5 9:50 PM, Bergkamen, Weather by CustomWeather, © 2016

Note: Actual official high and low records may vary slightly from our data, if they occured in-between our weather recording intervals... More about our weather records

Advertising

Bergkamen Weather History for the Previous 24 Hours

Scroll right to see more
 ConditionsComfort  
Time TempWeatherWind HumidityBarometerVisibility
9:50 PM
Thu, May 5
57 °FSunny.8 mph55%30.12 "Hg10 mi
9:20 PM57 °FSunny.8 mph51%30.12 "Hg10 mi
8:50 PM59 °FSunny.8 mph48%30.12 "Hg10 mi
8:20 PM63 °FSunny.8 mph42%30.12 "Hg10 mi
7:50 PM63 °FPassing clouds.7 mph42%30.12 "HgN/A
7:20 PM64 °FPassing clouds.10 mph37%30.12 "HgN/A
6:50 PM66 °FPassing clouds.10 mph35%30.12 "HgN/A
6:20 PM66 °FPassing clouds.10 mph35%30.15 "HgN/A
5:50 PM66 °FPassing clouds.8 mph32%30.15 "HgN/A
5:20 PM66 °FPassing clouds.10 mph32%30.15 "HgN/A
4:50 PM66 °FPassing clouds.10 mph32%30.18 "HgN/A
4:20 PM66 °FPassing clouds.13 mph32%30.18 "HgN/A
3:50 PM66 °FPassing clouds.8 mph35%30.18 "HgN/A
3:20 PM64 °FPassing clouds.10 mph34%30.21 "HgN/A
2:50 PM63 °FPassing clouds.9 mph39%30.21 "HgN/A
2:20 PM63 °FPassing clouds.8 mph42%30.24 "HgN/A
1:50 PM63 °FSunny.9 mph37%30.24 "Hg10 mi
1:20 PM63 °FPassing clouds.7 mph37%30.24 "HgN/A
12:50 PM61 °FPassing clouds.7 mph39%30.27 "HgN/A
12:20 PM59 °FPassing clouds.7 mph39%30.27 "HgN/A
11:50 AM59 °FPassing clouds.9 mph39%30.30 "HgN/A
11:20 AM57 °FPassing clouds.9 mph39%30.30 "HgN/A
10:50 AM57 °FPassing clouds.9 mph39%30.30 "HgN/A
10:20 AM55 °FPassing clouds.7 mph41%30.30 "HgN/A
9:50 AM54 °FPassing clouds.8 mph41%30.33 "HgN/A
9:20 AM54 °FSunny.7 mph47%30.33 "Hg10 mi
8:50 AM52 °FPassing clouds.5 mph50%30.33 "HgN/A
8:20 AM46 °FSunny.3 mph66%30.33 "Hg10 mi
7:50 AM45 °FSunny.3 mph71%30.33 "Hg10 mi
7:20 AM45 °FSunny.3 mph57%30.33 "Hg10 mi
6:50 AM39 °FClear.3 mph70%30.33 "Hg10 mi
6:20 AM37 °FClear.1 mph70%30.33 "Hg10 mi
5:50 AM41 °FClear.3 mph66%30.33 "Hg10 mi
5:20 AM41 °FClear.3 mph61%30.33 "Hg10 mi
Weather by CustomWeather, © 2016

See weather overviewHow to use our weather pages